Location: Central Coast
(33.3208°S, 151.2336°E)
Time: 23:03:30
(UTC+11:00)

Vanguard 3 - All Passes

Search period start: 22 October 2017 00:00
Search period end: 01 November 2017 00:00
Orbit: 510 x 3263 km, 33.3° (Epoch: 21 October)

Date Brightness Start Highest point End Pass type
(mag) Time Alt. Az. Time Alt. Az. Time Alt. Az.
22 Oct - 01:19:40 10° W 01:32:53 24° NW 01:46:26 10° N visible
22 Oct - 15:14:47 10° NNW 15:19:29 29° NE 15:26:45 10° E daylight
22 Oct - 17:24:03 10° WNW 17:31:08 79° NNE 17:44:21 10° E daylight
22 Oct - 19:35:18 10° W 19:45:22 89° N 20:03:00 10° E visible
22 Oct - 21:47:39 10° W 22:01:05 67° NNW 22:20:39 10° NE visible
23 Oct - 00:02:18 10° W 00:16:58 36° NW 00:33:46 10° NNE visible
23 Oct - 14:05:08 10° NNE 14:06:44 11° NE 14:08:32 10° ENE daylight
23 Oct - 16:11:26 10° NW 16:17:09 57° NNE 16:27:18 10° E daylight
23 Oct - 18:21:59 10° W 18:30:08 90° S 18:45:11 10° E daylight
23 Oct - 20:33:39 10° W 20:45:01 78° NNW 21:03:43 10° ENE visible
23 Oct - 22:46:44 10° W 23:00:48 48° NNW 23:19:19 10° NE visible
24 Oct - 01:04:42 10° W 01:16:13 20° NW 01:28:25 10° N visible
24 Oct - 14:59:26 10° NNW 15:03:52 32° NE 15:10:43 10° E daylight
24 Oct - 17:09:00 10° WNW 17:15:32 83° NNE 17:27:44 10° E daylight
24 Oct - 19:20:07 10° W 19:29:27 87° N 19:46:09 10° ENE visible
24 Oct - 21:32:13 10° W 21:44:40 61° NNW 22:03:32 10° NE visible
24 Oct - 23:46:56 10° W 00:00:18 31° NW 00:16:12 10° NNE visible
25 Oct - 13:48:55 10° NNE 13:51:04 13° NE 13:53:36 10° ENE daylight
25 Oct - 15:56:20 10° WNW 16:01:37 62° NNE 16:10:56 10° E daylight
25 Oct - 18:06:55 10° W 18:14:27 89° S 18:28:28 10° E daylight
25 Oct - 20:18:23 10° W 20:28:53 73° NNW 20:46:43 10° ENE visible
25 Oct - 22:31:20 10° W 22:44:17 43° NNW 23:01:55 10° NNE visible
26 Oct - 00:50:22 10° WNW 00:59:40 16° NW 01:09:43 10° N visible
26 Oct - 14:44:10 10° NW 14:48:20 35° NNE 14:54:45 10° E daylight
26 Oct - 16:53:59 10° W 17:00:02 86° N 17:11:12 10° E daylight
26 Oct - 19:04:59 10° W 19:13:36 84° N 19:29:17 10° ENE daylight
26 Oct - 21:16:54 10° W 21:28:22 55° NNW 21:46:16 10° NE visible
26 Oct - 23:31:53 10° W 23:43:47 26° NW 23:58:18 10° N visible
27 Oct - 13:33:02 10° N 13:35:31 15° NE 13:38:29 10° ENE daylight
27 Oct - 15:41:17 10° WNW 15:46:12 68° NNE 15:54:41 10° E daylight
27 Oct - 17:51:53 10° W 17:58:50 90° S 18:11:47 10° E daylight
27 Oct - 20:03:10 10° W 20:12:50 67° NNW 20:29:37 10° ENE visible
27 Oct - 22:16:08 10° W 22:27:54 37° NNW 22:44:18 10° NNE visible
28 Oct - 00:37:18 10° WNW 00:43:18 12° NW 00:49:42 10° NNW visible
28 Oct - 14:28:56 10° NW 14:32:55 40° NNE 14:38:53 10° E daylight
28 Oct - 16:39:00 10° W 16:44:36 89° N 16:54:46 10° E daylight
28 Oct - 18:49:53 10° W 18:57:49 79° NNW 19:12:25 10° ENE daylight
28 Oct - 21:01:42 10° W 21:12:12 48° NNW 21:28:52 10° NE visible
28 Oct - 23:17:12 10° WNW 23:27:26 21° NW 23:39:56 10° N visible
29 Oct - 13:17:18 10° N 13:20:01 18° NE 13:23:15 10° E daylight
29 Oct - 15:26:16 10° WNW 15:30:51 74° NNE 15:38:33 10° E daylight
29 Oct - 17:36:53 10° W 17:43:18 88° N 17:55:12 10° E daylight
29 Oct - 19:48:02 10° W 19:56:55 60° NNW 20:12:28 10° NE visible
29 Oct - 22:01:08 10° W 22:11:40 31° NNW 22:26:25 10° NNE visible
30 Oct - 14:13:44 10° NW 14:17:34 45° NNE 14:23:05 10° E daylight
30 Oct - 16:24:02 10° W 16:29:14 89° S 16:38:28 10° E daylight
30 Oct - 18:34:50 10° W 18:42:08 73° NNW 18:55:34 10° ENE daylight
30 Oct - 20:46:37 10° W 20:56:10 41° NNW 21:11:18 10° NE visible
30 Oct - 23:03:07 10° WNW 23:11:13 17° NW 23:20:58 10° N visible
31 Oct - 13:01:41 10° NNW 13:04:36 22° NNE 13:08:01 10° E daylight
31 Oct - 15:11:16 10° WNW 15:15:35 80° N 15:22:31 10° E daylight
31 Oct - 17:21:54 10° W 17:27:49 85° N 17:38:40 10° ENE daylight
31 Oct - 19:32:58 10° W 19:41:05 53° NNW 19:55:15 10° NE visible
31 Oct - 21:46:24 10° W 21:55:35 25° NNW 22:08:16 10° NNE visible
